.
Local / Fort Wayne - NE Ind.

U N D E R   C O N S T R U C T I O N

Local Weather
Fort Wayne – NE Indiana

Northern Indiana (IWX) Radar

Latest IWX NEXRAD
Base Reflectivity



Latest IWX NEXRAD
Base Velocity

Indiana-Ohio Visible Satellite

For infrared and water vapor imagery, see Great Lakes - Midwest.

Current Conditions

Recent report from the Fort Wayne International Airport

Nov 30, 2020 - 01:54 AM EST / 2020.11.30 0654 UTC


The skies are overcast and there is light rain. The temperature is 39.9 F (4.4 C) and the dew point is 34.0 F (1.1 C), giving a relative humidity of 79%. The barometric pressure is 29.81 in. Hg (1009 hPa). The wind is from the N (350 degrees) at 13 MPH (11 KT), and the visibility is 10 mile(s).

KFWA 300654Z 35011KT 10SM -RA OVC046 04/01 A2981 RMK AO2 RAB36 SLP099 P0000 T00440011

Local Weather — Contents

Local Weather — Links

CoCoRaHS
IN-AL-39
A2 Web Hosting
Creative Commons License
GoDaddy
search engine by freefind advanced

loaded 2020-11-30 02:38:23 • last modified 2017-02-11 13:27:36
Privacy PolicyDisclaimer
• wx.awcolley.com is powered by PmWiki v.2002016 •
• all content (unless otherwise noted) © 2020 A W Colley